カタログに戻る

CZ-4C DEB

運用中LEO
NORAD 43338·DEBRIS·🇨🇳 China

打ち上げ Apr 10, 2018 から Jiuquan Satellite Launch Center

Loading…

次のパス (今後24時間)

TLE

最新Source: Space-Track

元期: Sep 14, 2026, 07:41 UTC

1 43338U 18034H   26257.32077383 -.00000072  00000-0  24944-4 0  9999
2 43338  63.3917 230.6971 0282825   8.5178 352.0503 13.44727563413846

AllMySatでCZ-4C DEBをリアルタイム追跡

Download on the App Store